Regional Weather Roundup
Issued by NWS

Home | Current Version | Previous Version | Graphics & Text | Print | Product List | Glossary On
Versions: 1 2 3 4 5 6 7 8 9 10 11 12 13 14 15 16 17 18 19 20 21 22 23 24 25 26 27 28 29 30 31 32 33 34 35 36 37 38 39 40 41 42 43 44 45 46 47 48 49 50
000
ASUS43 KBIS 022210
RWRND

NORTH DAKOTA REGIONAL WEATHER ROUNDUP
NATIONAL WEATHER SERVICE BISMARCK ND
400 PM CST FRI DEC 02 2016

NOTE: "FAIR" INDICATES FEW OR NO CLOUDS BELOW 12,000 FEET WITH NO
SIGNIFICANT WEATHER AND/OR OBSTRUCTIONS TO VISIBILITY.


NDZ001>003-009>011-017-022300-
NORTHWEST NORTH DAKOTA

CITY           SKY/WX    TMP DP  RH WIND       PRES   REMARKS
WILLISTON      CLOUDY    31  25  78 SW7       30.15S
MINOT          CLOUDY    29  24  82 S9        30.17S
MINOT AFB      CLOUDY    28  24  86 S8        30.17S WCI  20
$$

NDZ018>021-031>035-040>046-022300-
SOUTHWEST NORTH DAKOTA

CITY           SKY/WX    TMP DP  RH WIND       PRES   REMARKS
BISMARCK       CLOUDY    27  20  75 S8        30.24S WCI  19
DICKINSON      CLOUDY    29  25  85 W7        30.14S
GARRISON         N/A     27  23  85 S13       30.18S WCI  16
HETTINGER ARPT MOCLDY    26  22  84 W5        30.18R
$$

NDZ004>008-012>016-024-026-027-054-022300-
NORTHEAST NORTH DAKOTA

CITY           SKY/WX    TMP DP  RH WIND       PRES   REMARKS
GRAND FORKS    CLOUDY    32  22  66 W5        30.26R
GRND FRKS AFB  CLOUDY    32  21  64 CALM      30.26R
DEVILS LAKE    CLOUDY    29  21  72 SW8       30.24R
$$

NDZ022-023-025-028>030-036>039-047>053-022300-
SOUTHEAST NORTH DAKOTA

CITY           SKY/WX    TMP DP  RH WIND       PRES   REMARKS
FARGO          CLOUDY    30  21  69 NW12      30.28R
JAMESTOWN      CLOUDY    27  20  75 CALM      30.25R
$$





USA.gov is the U.S. government's official web portal to all federal, state and local government web resources and services.